Regional Weather Roundup
Issued by NWS

Home | Current Version | Previous Version | Graphics & Text | Print | Product List | Glossary On
Versions: 1 2 3 4 5 6 7 8 9 10 11 12 13 14 15 16 17 18 19 20 21 22 23 24 25 26 27 28 29 30 31 32 33 34 35 36 37 38 39 40 41 42 43 44 45 46 47 48 49 50
000
ASUS43 KLOT 232003
RWRIL

ILLINOIS REGIONAL WEATHER ROUNDUP
NATIONAL WEATHER SERVICE CHICAGO/ROMEOVILLE IL
200 PM CST MON JAN 23 2017

NOTE: "FAIR" INDICATES FEW OR NO CLOUDS BELOW 12,000 FEET WITH NO
SIGNIFICANT WEATHER AND/OR OBSTRUCTIONS TO VISIBILITY.

* THESE STATIONS ARE NOT UNDER NWS QUALITY CONTROL. THEY ALSO MAY NOT
  REPORT WEATHER SUCH AS PRECIPITATION OR FOG.

ILZ001-002-007-009-015-016-024-232100-
NORTHWEST ILLINOIS

CITY           SKY/WX    TMP DP  RH WIND       PRES   REMARKS
MOLINE         CLOUDY    41  34  76 W12       29.80F
STERLING*      CLOUDY    42  36  79 NW12      29.79F
SAVANNA*       CLOUDY    39  35  85 W5        29.80S
$$

ILZ003-004-008-010-011-017-018-232100-
NORTH CENTRAL ILLINOIS

CITY           SKY/WX    TMP DP  RH WIND       PRES   REMARKS
ROCKFORD       CLOUDY    43  35  73 NW8       29.77F
FREEPORT*      CLOUDY    39  35  84 NW7       29.79S WCI  34
ROCHELLE*      CLOUDY    40  36  86 NW6       29.77S
DE KALB*       CLOUDY    40  37  87 N8        29.76S
PERU*          CLOUDY    40  35  81 NW7       29.78F
$$

ILZ005-006-012>014-019>023-232100-
NORTHEAST ILLINOIS

CITY           SKY/WX    TMP DP  RH WIND       PRES   REMARKS
CHICAGO-OHARE  CLOUDY    41  36  82 N10       29.73F
CHICAGO-MIDWAY CLOUDY    42  34  73 N13G21    29.74S
AURORA         CLOUDY    42  36  79 N10       29.76R
LANSING*       CLOUDY    39  38  94 N6        29.73F WCI  35
JOLIET*        CLOUDY    43  37  78 N8        29.76R
WAUKEGAN       CLOUDY    42  37  82 NW6       29.73S
DUPAGE AIRPORT CLOUDY    41  35  79 N7        29.74S
KANKAKEE*      CLOUDY    40  35  83 N7        29.76R
WHEELING       CLOUDY    41  35  79 N8        29.75R
MORRIS*        CLOUDY    41  36  83 CALM      29.75R
ROMEOVILLE*    CLOUDY    41  38  88 N10       29.75R
NORTHERLY ISL    N/A     38  36  92 N8          N/A  WCI  32
$$

LMZ740>746-232100-
SOUTHERN LAKE MICHIGAN

STATION/POSITION SKY/WX   TEMP    WIND        PRES    VSBY  WAVE
                          AIR SEA DIR/SP/G                  HT/PER
                          (F)     (DEG/KT/KT) (MB)    (MI)  (FT/S)
HARRISON CRIB              36     340/ 12/ 12   N/A
BURNHAM HARBOR             39     340/  7/ 12   N/A
CALUMET HARBOR             37     330/  9/ 13 1006.5F
BURNS HARBOR               36     340/  7/  9 1007.1F
MICHIGAN CITY              36     330/ 12/ 13   N/A
$$

ILZ025>027-034>036-040-047-049-050-058-095>099-232100-
WEST-CENTRAL ILLINOIS

CITY           SKY/WX    TMP DP  RH WIND       PRES   REMARKS
QUINCY         CLOUDY    39  34  82 NW9       29.82F WCI  33
GALESBURG*     CLOUDY    39  36  89 W10       29.80F WCI  32
MACOMB*        CLOUDY    40  36  86 NW10      29.83F
JACKSONVILLE*  CLOUDY    41  34  75 NW14      29.80F
PITTSFIELD*    CLOUDY    41  35  79 N12       29.82F
$$

ILZ028>032-037-038-041>044-048-051>054-059>061-232100-
CENTRAL ILLINOIS

CITY           SKY/WX    TMP DP  RH WIND       PRES   REMARKS
PONTIAC        CLOUDY    40  38  90 NW10      29.76F
BLOOMINGTON    CLOUDY    39  35  86 N13       29.76F WCI  31
DECATUR        CLOUDY    42  37  82 N10       29.75F
PEORIA         CLOUDY    42  35  76 NW9       29.79F
LACON*         CLOUDY    40  36  85 NW7       29.78S
LINCOLN*       CLOUDY    43  37  79 NW9       29.77F
SPRINGFIELD    CLOUDY    44  35  70 NW8       29.79F
TAYLORVILLE    CLOUDY    42  36  81 NW12      29.77F
$$

ILZ033-039-045-046-055>057-062-063-232100-
EAST-CENTRAL ILLINOIS

CITY           SKY/WX    TMP DP  RH WIND       PRES   REMARKS
CHAMPAIGN      CLOUDY    41  35  79 N12       29.74F
RANTOUL*       CLOUDY    41  38  87 N13       29.74F
MATTOON        CLOUDY    40  36  86 N16       29.73F
PARIS*         CLOUDY    40  37  89 NW13      29.74R
$$

ILZ079-100>102-232100-
SOUTHWEST ILLINOIS

CITY           SKY/WX    TMP DP  RH WIND       PRES   REMARKS
ALTON          CLOUDY    41  34  75 NW14      29.81S
BELLEVILLE     CLOUDY    42  36  78 NW13      29.80S
CAHOKIA*       CLOUDY    43  34  70 NW14      29.82S
SPARTA*        CLOUDY    42  35  76 NW10G16   29.81S
$$

ILZ064>066-069>071-074>076-080>082-084>086-088>090-092>094-232100-
SOUTH-CENTRAL ILLINOIS

CITY           SKY/WX    TMP DP  RH WIND       PRES   REMARKS
CARBONDALE     CLOUDY    43  37  79 NW13      29.78F
CAIRO*         CLOUDY    45  37  72 NW14      29.78S
EFFINGHAM*     CLOUDY    41  38  88 NW14      29.76F
MARION         CLOUDY    45  37  76 NW16G24   29.78S
MT. VERNON     CLOUDY    42  35  76 VRB5      29.77S
CENTRALIA*     CLOUDY    42  37  82 NW14G22   29.77S
SALEM*         CLOUDY    43  37  78 NW16      29.77S
METROPOLIS*    CLOUDY    44  36  73 NW13G18   29.77R
$$

ILZ067-068-072-073-078-083-087-091-232100-
SOUTHEAST ILLINOIS

CITY           SKY/WX    TMP DP  RH WIND       PRES   REMARKS
LAWRENCEVILLE  CLOUDY    42  38  85 N16       29.72S
FLORA*         CLOUDY    43  37  80 NW13      29.75F
FAIRFIELD*     CLOUDY    42  37  81 N7        29.74F
HARRISBURG*    CLOUDY    42  37  83 NW14      29.77S
ROBINSON*      CLOUDY    40  37  91 NW13      29.74R
CARMI*         CLOUDY    41  37  86 NW14      29.74S
$$

ABBREVIATIONS USED IN REMARKS
   TC - TEMPERATURE IN CELSIUS
  WCI - WIND CHILL INDEX
   HX - HEAT INDEX
  VSB - VISIBILITY
$$





USA.gov is the U.S. government's official web portal to all federal, state and local government web resources and services.